ALCOMSAT 1

Last updated on Fri Dec 19 2025 00:02:52 GMT+0000 (Coordinated Universal Time)

1 43039U 17078A 25352.47760081 -.00000161 00000+0 00000+0 0 9999 2 43039 0.0478 206.2043 0003265 42.7727 345.5015 1.00272135 29489
UTC large
Height (km)
Speed (km/s)
/
Latitude / Longitude
Inclination (degrees)
Orbital Period (minutes)
Azimuth
Elevation
Range (km)
Doppler Factor

Next 0 passes for location: London (51.5072 / 0.1276)

Sorry there are no passes over London.